{"data":{"norad_id":55422,"intl_designator":"2023-014AH","name":"STARLINK-5006","alt_names":[],"object_type":"PAYLOAD","status":"ACTIVE","operator":null,"country":"US","launch_date":"2023-01-31","launch_site_code":"AFWTR","launch_vehicle":null,"mission":null,"orbit_class":"UNKNOWN","rcs_meters":null,"size_class":null,"mass_kg":null,"dimensions":null,"purposes":["comms"],"wikipedia_slug":null,"has_3d_model":false,"image_url":null,"decayed_at":null,"tle_current":{"epoch":"2026-05-24T17:10:32.401056Z","epoch_age_seconds":106386,"freshness":"FRESH","line1":"1 55422U 23014AH  26144.71565279  .00000053  00000+0  12226-4 0  9991","line2":"2 55422  69.9991 252.6184 0003545 269.1271  90.9482 14.98332061182950","mean_motion":14.98332061,"eccentricity":0.0003545,"inclination_deg":69.9991,"raan_deg":252.6184,"arg_perigee_deg":269.1271,"mean_anomaly_deg":90.9482,"bstar":1.2226e-5,"rev_number":18295,"period_min":96.106866927678,"perigee_km":569.58567635879,"apogee_km":574.51335859968,"semimajor_km":6950.1865174792,"source":"CELESTRAK","updated_at":"2026-05-25T13:38:17.798531Z"}}}